[[{"header":{"parameterUnit":"m.s-1","parameterCategory":1,"la1":30.2992,"la2":30.254,"lo1":-89.0895,"lo2":-89.0443,"dy":0.0025,"dx":0.0025,"nx":19,"ny":19,"refTime":"2026-03-18T09:00:00:Z","depth":0,"parameterNumber":2,"parameterNumberName":"U-component_of_WINDS"},"data":[0,0,0,-1.4318,-1.4318,-1.4287,-1.4287,-1.4282,-1.4282,0,0,0,0,0,0,0,0,0,0,0,-1.4346,-1.4347,-1.4318,-1.4318,-1.4287,-1.4287,-1.4282,-1.4282,0,0,0,0,0,0,0,0,0,0,0,-1.4346,-1.4346,-1.4347,-1.4318,-1.4287,-1.4287,-1.4282,-1.4293,0,0,0,0,0,0,0,0,0,0,-1.4317,-1.4361,-1.4346,-1.4347,-1.4318,-1.4287,-1.4287,-1.4293,-1.4293,-1.431,0,-1.4329,0,-1.4306,-1.4284,-1.4284,0,0,0,-1.4304,-1.4362,-1.4336,-1.4347,-1.4318,-1.4288,-1.4297,-1.4293,-1.4292,-1.431,-1.4329,-1.4328,-1.4306,-1.4284,-1.4284,-1.4431,-1.4432,0,0,-1.4306,-1.4351,-1.4337,-1.4337,-1.4342,-1.4298,-1.4296,-1.4292,-1.4316,-1.4329,-1.4327,-1.4306,-1.4285,-1.4285,-1.443,-1.4431,0,0,0,-1.432,-1.4353,-1.4327,-1.4338,-1.433,-1.4298,-1.4296,-1.4316,-1.4304,-1.4327,-1.4306,-1.4285,-1.4285,-1.4428,-1.443,-1.4542,0,0,0,-1.432,-1.4361,-1.4328,-1.4356,-1.4331,-1.4322,-1.4321,-1.4304,-1.4302,-1.4306,-1.4285,-1.4285,-1.4426,-1.4429,-1.4536,-1.4588,0,0,0,-1.4342,-1.4363,-1.4365,-1.4358,-1.4346,-1.4321,-1.4308,-1.4303,-1.429,-1.4284,-1.4285,-1.4425,-1.4429,-1.453,-1.4578,-1.4642,0,0,0,-1.4378,-1.4463,-1.4368,-1.4455,-1.4347,-1.439,-1.4308,-1.4337,-1.4345,-1.4285,-1.4427,-1.443,-1.4528,-1.4572,-1.4637,-1.4706,-1.4739,0,0,-1.4511,-1.4481,-1.4529,-1.4443,-1.4514,-1.4391,-1.4479,-1.4443,-1.4401,-1.4424,-1.4427,-1.4538,-1.4578,-1.4641,-1.49,-1.4926,0,0,0,-1.4587,-1.4623,-1.4631,-1.4641,-1.4616,-1.46,-1.4546,-1.4533,-1.455,-1.4421,-1.4575,-1.4597,-1.4633,-1.4664,-1.4687,-1.4716,-1.4445,-1.4445,-1.4445,-1.4842,-1.4784,-1.4861,-1.4801,-1.4811,-1.4756,-1.476,-1.4734,-1.4671,-1.4709,-1.4716,-1.488,-1.4918,-1.4934,-1.4966,-1.4745,-1.4746,-1.4746,-1.4746,-1.5035,-1.5078,-1.4994,-1.5039,-1.4978,-1.5016,-1.4967,-1.4922,-1.495,-1.4868,-1.4897,-1.4816,-1.4965,-1.4989,-1.4754,-1.4753,-1.4752,-1.4751,-1.475,-1.5198,-1.5209,-1.5191,-1.5202,-1.5217,-1.5152,-1.5184,-1.5126,-1.5072,-1.51,-1.5104,-1.5102,-1.5096,-1.5106,-1.5106,-1.5107,-1.5107,-1.5108,-1.5108,-1.5375,-1.5352,-1.5385,-1.5368,-1.5368,-1.5362,-1.5309,-1.5308,-1.5293,-1.5249,-1.5249,-1.5186,-1.4989,-1.4943,-1.5117,-1.5115,-1.5114,-1.5113,-1.5113,-1.5597,-1.5538,-1.559,-1.5591,-1.5567,-1.5588,-1.5514,-1.5519,-1.551,-1.5529,-1.5459,-1.5322,-1.5287,-1.5269,-1.5231,-1.5469,-1.5469,-1.5469,-1.5469,-1.5737,-1.5714,-1.5755,-1.5761,-1.576,-1.5699,-1.5764,-1.5724,-1.5675,-1.5667,-1.5623,-1.5566,-1.555,-1.5525,-1.5502,-1.5465,-1.5758,-1.5758,-1.5758,-1.5873,-1.5847,-1.5911,-1.5861,-1.5839,-1.5823,-1.5882,-1.5895,-1.5826,-1.5769,-1.566,-1.5648,-1.5555,-1.5527,-1.547,-1.5435,-1.5366,0,0]},{"header":{"parameterUnit":"m.s-1","parameterCategory":1,"la1":30.2992,"la2":30.254,"lo1":-89.0895,"lo2":-89.0443,"dy":0.0025,"dx":0.0025,"nx":19,"ny":19,"refTime":"2026-03-18T09:00:00:Z","depth":0,"parameterNumber":3,"parameterNumberName":"V-component_of_WINDS"},"data":[0,0,0,0.5823,0.5821,0.5749,0.5748,0.5652,0.5652,0,0,0,0,0,0,0,0,0,0,0,0.5844,0.5844,0.5823,0.5821,0.5749,0.5748,0.5653,0.5652,0,0,0,0,0,0,0,0,0,0,0,0.5845,0.5844,0.5843,0.5821,0.5749,0.5748,0.5653,0.5708,0,0,0,0,0,0,0,0,0,0,0.5779,0.5799,0.5844,0.5843,0.5821,0.5749,0.5748,0.5711,0.5705,0.5685,0,0.5668,0,0.5659,0.5645,0.5645,0,0,0,0.5821,0.5805,0.5785,0.5843,0.582,0.5749,0.5781,0.5708,0.5701,0.5677,0.5667,0.5664,0.5657,0.5645,0.5644,0.5534,0.5533,0,0,0.5825,0.5831,0.579,0.5781,0.5794,0.5784,0.5779,0.5703,0.5693,0.5667,0.5661,0.5656,0.5644,0.5643,0.5534,0.5534,0,0,0,0.5837,0.5834,0.5816,0.5785,0.5772,0.5781,0.5776,0.5696,0.569,0.566,0.5654,0.5643,0.5642,0.5535,0.5534,0.5515,0,0,0,0.5839,0.5841,0.5818,0.5821,0.5773,0.5733,0.577,0.5695,0.5686,0.5655,0.5643,0.5641,0.5535,0.5535,0.5516,0.5503,0,0,0,0.5849,0.5842,0.5831,0.5821,0.579,0.5734,0.5724,0.5693,0.5683,0.5645,0.5641,0.5536,0.5535,0.5518,0.5506,0.5475,0,0,0,0.5861,0.5815,0.5831,0.5777,0.5791,0.5724,0.5724,0.5674,0.5639,0.5643,0.5535,0.5534,0.5518,0.5508,0.5477,0.5449,0.5438,0,0,0.5806,0.5808,0.5776,0.5789,0.572,0.5735,0.5663,0.5625,0.5616,0.5561,0.5559,0.5516,0.5506,0.5475,0.5382,0.5373,0,0,0,0.576,0.5737,0.5718,0.5686,0.5657,0.5631,0.5604,0.559,0.5544,0.559,0.5498,0.5492,0.5473,0.5459,0.5452,0.5435,0.5529,0.5529,0.5529,0.5688,0.568,0.5626,0.5609,0.5578,0.5552,0.5525,0.5501,0.5501,0.548,0.5463,0.5407,0.5391,0.5386,0.5368,0.5449,0.5449,0.5449,0.5449,0.5604,0.5568,0.5572,0.552,0.5512,0.5468,0.5441,0.5442,0.5399,0.5419,0.5403,0.5423,0.5377,0.5361,0.5448,0.5448,0.5448,0.5448,0.5448,0.5553,0.5535,0.552,0.5474,0.5439,0.5424,0.5383,0.5377,0.5371,0.5355,0.5335,0.5335,0.5333,0.5347,0.5346,0.5346,0.5346,0.5346,0.5346,0.5505,0.5489,0.5456,0.5423,0.5402,0.5374,0.5348,0.5327,0.5301,0.53,0.5299,0.53,0.5375,0.5393,0.5343,0.5343,0.5343,0.5344,0.5344,0.5418,0.5437,0.5385,0.5364,0.5325,0.529,0.5285,0.5242,0.5224,0.5203,0.5209,0.5267,0.5268,0.5273,0.5287,0.5213,0.5213,0.5213,0.5213,0.5373,0.5374,0.532,0.5287,0.5254,0.5245,0.5185,0.5165,0.5147,0.5135,0.5146,0.5165,0.5171,0.5168,0.5176,0.5189,0.5091,0.5091,0.5091,0.5317,0.5316,0.5266,0.5251,0.522,0.5194,0.5137,0.5098,0.5082,0.5086,0.5125,0.513,0.5161,0.5172,0.5173,0.5186,0.5209,0,0]}]]